Location: Unspecified
(0.0000°N, 0.0000°E)
Time: 16:38:09
(UTC+00:00)

Envisat - Pass Details

Date: 20 August 2017
Orbit: 764 x 766 km, 98.2° (Epoch: 18 December)

Event Time Altitude Azimuth Distance (km) Brightness Sun altitude
Exits shadow 19:50:12 11° 20° (NNE) 2,190 5.3 -26.1°
Drops below altitude 10° 19:50:30 10° 18° (NNE) 2,291 5.4 -26.2°
Sets 19:53:02 0° 8° (N) 3,214 6.3 -26.8°
